START_TIME,STEP,MOV.,M15,t_acc.,M20,t_acc.
1981-08-25 06:00:44.890 ,0,0,0.,24.0,0.,24.0
1981-08-25 06:01:13.090 ,0,0,0.,24.0,0.,24.0
1981-08-25 06:01:32.890 ,0,0,0.,24.0,0.,24.0
1981-08-25 06:01:56.890 ,2,1,0.,24.0,0.,24.0
1981-08-25 06:02:20.890 ,2,0,0.,24.0,0.,24.0
1981-08-25 06:02:44.890 ,3,1,0.,24.0,0.,24.0
1981-08-25 06:03:08.890 ,3,0,0.,24.0,0.,24.0
1981-08-25 06:03:32.890 ,4,1,0.,24.0,0.,24.0
1981-08-25 06:03:56.890 ,4,0,0.,24.0,0.,24.0
1981-08-25 06:04:20.890 ,5,1,0.,24.0,0.,24.0
1981-08-25 06:04:44.890 ,5,0,0.,24.0,0.,24.0
1981-08-25 06:05:08.890 ,6,1,0.,24.0,0.,24.0
1981-08-25 06:05:32.890 ,6,0,0.,24.0,0.,24.0
1981-08-25 06:05:56.890 ,7,1,0.,24.0,0.,24.0
1981-08-25 06:06:20.890 ,7,0,0.,24.0,0.,24.0
1981-08-25 06:06:44.890 ,7,1,0.,24.0,0.,24.0
1981-08-25 06:07:08.890 ,7,0,0.,24.0,0.,24.0
1981-08-25 06:07:32.890 ,6,1,0.,24.0,0.,24.0
1981-08-25 06:07:56.890 ,6,0,0.,24.0,0.,24.0
1981-08-25 06:08:20.890 ,5,1,0.,24.0,0.,24.0
1981-08-25 06:08:44.890 ,5,0,0.,24.0,0.,24.0
1981-08-25 06:09:08.890 ,4,1,0.,24.0,0.,24.0
1981-08-25 06:09:32.890 ,4,0,0.,24.0,0.,24.0
1981-08-25 06:09:56.890 ,3,1,0.,24.0,0.,24.0
1981-08-25 06:10:20.890 ,3,0,0.,24.0,0.,24.0
1981-08-25 06:10:44.890 ,2,1,0.,24.0,0.,24.0
1981-08-25 06:11:08.890 ,2,0,0.,24.0,0.,24.0
1981-08-25 06:11:32.890 ,1,1,0.,24.0,0.,24.0
1981-08-25 06:11:56.890 ,1,0,0.,24.0,0.,24.0
1981-08-25 06:12:20.890 ,0,1,0.,24.0,0.,24.0
1981-08-25 06:12:44.890 ,0,0,0.,24.0,0.,24.0
1981-08-25 06:13:08.890 ,0,1,0.,24.0,0.,24.0
1981-08-25 06:13:32.890 ,0,0,0.,24.0,0.,24.0
1981-08-25 06:13:56.890 ,1,1,0.,24.0,0.,24.0
1981-08-25 06:14:20.890 ,1,0,0.,24.0,0.,24.0
1981-08-25 06:14:44.890 ,2,1,0.,24.0,0.,24.0
1981-08-25 06:15:08.890 ,2,0,0.,24.0,0.,24.0
1981-08-25 06:15:32.890 ,3,1,0.,24.0,0.,24.0
1981-08-25 06:15:56.890 ,3,0,0.,24.0,0.,24.0
1981-08-25 06:16:20.890 ,4,1,0.,24.0,0.,24.0
1981-08-25 06:16:44.890 ,4,0,0.,24.0,0.,24.0
1981-08-25 06:17:08.890 ,5,1,0.,24.0,0.,24.0
1981-08-25 06:17:32.890 ,5,0,0.,24.0,0.,24.0
1981-08-25 06:17:56.890 ,6,1,0.,24.0,0.,24.0
1981-08-25 06:18:20.890 ,6,0,0.,24.0,0.,24.0
1981-08-25 06:18:44.890 ,7,1,0.,24.0,0.,24.0
1981-08-25 06:19:08.890 ,7,0,0.,24.0,0.,24.0
1981-08-25 06:19:32.890 ,7,1,0.,24.0,0.,24.0
1981-08-25 06:19:56.890 ,7,0,0.,24.0,0.,24.0
1981-08-25 06:20:20.890 ,6,1,0.,24.0,0.,24.0
1981-08-25 06:20:44.890 ,6,0,0.,24.0,0.,24.0
1981-08-25 06:21:08.890 ,5,1,0.,24.0,0.,24.0
1981-08-25 06:21:32.890 ,5,0,0.,24.0,0.,24.0
1981-08-25 06:21:56.890 ,4,1,0.,24.0,0.,24.0
1981-08-25 06:22:20.890 ,4,0,0.,24.0,0.,24.0
1981-08-25 06:22:44.890 ,3,1,0.,24.0,0.,24.0
1981-08-25 06:23:08.890 ,3,0,0.,24.0,0.,24.0
1981-08-25 06:23:32.890 ,2,1,0.,24.0,0.,24.0
1981-08-25 06:23:56.890 ,2,0,0.,24.0,0.,24.0
1981-08-25 06:24:20.890 ,1,1,0.,24.0,0.,24.0
1981-08-25 06:24:44.890 ,1,0,0.,24.0,0.,24.0
1981-08-25 06:25:08.890 ,0,1,0.,24.0,0.,24.0
1981-08-25 06:25:32.890 ,0,0,0.,24.0,0.,24.0
1981-08-25 06:25:56.890 ,0,1,0.,24.0,0.,24.0
1981-08-25 06:26:20.890 ,0,0,0.,24.0,0.,24.0
1981-08-25 06:26:44.890 ,1,1,0.,24.0,0.,24.0
1981-08-25 06:27:08.890 ,1,0,0.,24.0,0.,24.0
1981-08-25 06:27:32.890 ,2,1,0.,24.0,0.,24.0
1981-08-25 06:27:56.890 ,2,0,0.,24.0,0.,24.0
1981-08-25 06:28:20.890 ,3,1,0.,24.0,0.,24.0
1981-08-25 06:28:44.890 ,3,0,0.,24.0,0.,24.0
1981-08-25 06:29:08.890 ,4,1,0.,24.0,0.,24.0
1981-08-25 06:29:32.890 ,4,0,0.,24.0,0.,24.0
1981-08-25 06:29:56.890 ,5,1,0.,24.0,0.,24.0
1981-08-25 06:30:20.890 ,5,0,0.,24.0,0.,24.0
1981-08-25 06:30:44.890 ,6,1,0.,24.0,0.,24.0
1981-08-25 06:31:08.890 ,6,0,0.,24.0,0.,24.0
1981-08-25 06:30:44.890 ,6,1,0.,24.0,0.,24.0
1981-08-25 06:31:08.890 ,6,0,0.,24.0,0.,24.0
1981-08-25 06:31:32.890 ,7,1,0.,24.0,0.,24.0
1981-08-25 06:31:56.890 ,7,0,0.,24.0,0.,24.0
1981-08-25 06:32:20.890 ,7,1,0.,24.0,0.,24.0
1981-08-25 06:32:44.890 ,7,0,0.,24.0,0.,24.0
1981-08-25 06:33:08.890 ,6,1,0.,24.0,0.,24.0
1981-08-25 06:33:32.890 ,6,0,0.,24.0,0.,24.0
1981-08-25 06:33:56.890 ,5,1,0.,24.0,0.,24.0
1981-08-25 06:34:20.890 ,5,0,0.,24.0,0.,24.0
1981-08-25 06:34:44.890 ,4,1,0.,24.0,0.,24.0
1981-08-25 06:35:08.890 ,4,0,0.,24.0,0.,24.0
1981-08-25 06:35:32.890 ,3,1,0.,24.0,0.,24.0
1981-08-25 06:35:56.890 ,3,0,0.,24.0,0.,24.0
1981-08-25 06:36:20.890 ,2,1,0.,24.0,0.,24.0
1981-08-25 06:36:44.890 ,2,0,0.,24.0,0.,24.0
1981-08-25 06:37:08.890 ,1,1,0.,24.0,0.,24.0
1981-08-25 06:37:32.890 ,1,0,0.,24.0,0.,24.0
1981-08-25 06:37:56.890 ,0,1,0.,24.0,0.,24.0
1981-08-25 06:38:20.890 ,0,0,0.,24.0,0.,24.0
1981-08-25 06:38:44.890 ,0,1,0.,24.0,0.,24.0
1981-08-25 06:39:08.890 ,0,0,0.,24.0,0.,24.0
1981-08-25 06:39:32.890 ,1,1,0.,24.0,0.,24.0
1981-08-25 06:39:56.890 ,1,0,0.,24.0,0.,24.0
1981-08-25 06:40:20.890 ,2,1,0.,24.0,0.,24.0
1981-08-25 06:40:44.890 ,2,0,0.,24.0,0.,24.0
1981-08-25 06:41:08.890 ,3,1,0.,24.0,0.,24.0
1981-08-25 06:41:32.890 ,3,0,0.,24.0,0.,24.0
1981-08-25 06:41:56.890 ,4,1,0.,24.0,0.,24.0
1981-08-25 06:42:20.890 ,4,0,0.,24.0,0.,24.0
1981-08-25 06:42:44.890 ,5,1,0.,24.0,0.,24.0
1981-08-25 06:43:08.890 ,5,0,0.,24.0,0.,24.0
1981-08-25 06:43:32.890 ,6,1,0.,24.0,0.,24.0
1981-08-25 06:43:56.890 ,6,0,0.,24.0,0.,24.0
1981-08-25 06:45:08.890 ,0,0,0.,24.0,0.,24.0
1981-08-25 06:45:32.890 ,0,0,0.,24.0,0.,24.0
1981-08-25 06:45:56.890 ,6,1,0.,24.0,0.,24.0
1981-08-25 06:46:20.890 ,6,0,0.,24.0,0.,24.0
1981-08-25 06:46:44.890 ,5,1,0.,24.0,0.,24.0
1981-08-25 06:47:08.890 ,5,0,0.,24.0,0.,24.0
1981-08-25 06:47:32.890 ,4,1,0.,24.0,0.,24.0
1981-08-25 06:47:56.890 ,4,0,0.,24.0,0.,24.0
1981-08-25 06:48:20.890 ,3,1,0.,24.0,0.,24.0
1981-08-25 06:48:44.890 ,3,0,0.,24.0,0.,24.0
1981-08-25 06:49:08.890 ,2,1,0.,24.0,0.,24.0
1981-08-25 06:49:32.890 ,2,0,0.,24.0,0.,24.0
1981-08-25 06:49:56.890 ,1,1,0.,24.0,0.,24.0
1981-08-25 06:50:20.890 ,1,0,0.,24.0,0.,24.0
1981-08-25 06:50:44.890 ,0,1,0.,24.0,0.,24.0
1981-08-25 06:51:08.890 ,0,0,0.,24.0,0.,24.0
1981-08-25 06:51:32.890 ,0,1,0.,24.0,0.,24.0
1981-08-25 06:51:56.890 ,0,0,0.,24.0,0.,24.0
1981-08-25 06:52:20.890 ,1,1,0.,24.0,0.,24.0
1981-08-25 06:52:44.890 ,1,0,0.,24.0,0.,24.0
1981-08-25 06:53:08.890 ,2,1,0.,24.0,0.,24.0
1981-08-25 06:53:32.890 ,2,0,0.,24.0,0.,24.0
1981-08-25 06:53:56.890 ,3,1,0.,24.0,0.,24.0
1981-08-25 06:54:20.890 ,3,0,0.,24.0,0.,24.0
1981-08-25 06:54:44.890 ,4,1,0.,24.0,0.,24.0
1981-08-25 06:55:08.890 ,4,0,0.,24.0,0.,24.0
1981-08-25 06:55:32.890 ,5,1,0.,24.0,0.,24.0
1981-08-25 06:55:56.890 ,5,0,0.,24.0,0.,24.0
1981-08-25 06:56:20.890 ,6,1,0.,24.0,0.,24.0
1981-08-25 06:56:44.890 ,6,0,0.,24.0,0.,24.0
1981-08-25 06:57:08.890 ,7,1,0.,24.0,0.,24.0
1981-08-25 06:57:32.890 ,7,0,0.,24.0,0.,24.0
1981-08-25 06:57:56.890 ,7,1,0.,24.0,0.,24.0
1981-08-25 06:58:20.890 ,0,0,0.,24.0,0.,24.0
1981-08-25 07:01:40.090 ,0,0,0.,24.0,0.,24.0
1981-08-25 07:01:56.890 ,2,1,0.,24.0,0.,24.0
1981-08-25 07:02:20.890 ,2,0,0.,24.0,0.,24.0
1981-08-25 07:02:44.890 ,1,1,0.,24.0,0.,24.0
1981-08-25 07:03:08.890 ,1,0,0.,24.0,0.,24.0
1981-08-25 07:03:32.890 ,0,1,0.,24.0,0.,24.0
1981-08-25 07:03:56.890 ,0,0,0.,24.0,0.,24.0
1981-08-25 07:04:20.890 ,0,1,0.,24.0,0.,24.0
1981-08-25 07:04:44.890 ,0,0,0.,24.0,0.,24.0
1981-08-25 07:05:08.880 ,1,1,0.,24.0,0.,24.0
1981-08-25 07:05:32.890 ,1,0,0.,24.0,0.,24.0
1981-08-25 07:05:56.890 ,2,1,0.,24.0,0.,24.0
1981-08-25 07:06:20.880 ,2,0,0.,24.0,0.,24.0
1981-08-25 07:06:44.890 ,3,1,0.,24.0,0.,24.0
1981-08-25 07:07:08.880 ,3,0,0.,24.0,0.,24.0
1981-08-25 07:07:32.890 ,4,1,0.,24.0,0.,24.0
1981-08-25 07:07:56.890 ,4,0,0.,24.0,0.,24.0
1981-08-25 07:08:20.880 ,5,1,0.,24.0,0.,24.0
1981-08-25 07:08:44.890 ,5,0,0.,24.0,0.,24.0
1981-08-25 07:09:08.890 ,6,1,0.,24.0,0.,24.0
1981-08-25 07:09:32.890 ,6,0,0.,24.0,0.,24.0
1981-08-25 07:09:56.890 ,7,1,0.,24.0,0.,24.0
1981-08-25 07:10:20.890 ,7,0,0.,24.0,0.,24.0
1981-08-25 07:10:44.890 ,7,1,0.,24.0,0.,24.0
1981-08-25 07:11:08.890 ,7,0,0.,24.0,0.,24.0
1981-08-25 07:11:32.890 ,6,1,0.,24.0,0.,24.0
1981-08-25 07:11:56.890 ,6,0,0.,24.0,0.,24.0
1981-08-25 07:12:20.890 ,5,1,0.,24.0,0.,24.0
1981-08-25 07:12:44.890 ,5,0,0.,24.0,0.,24.0
1981-08-25 07:13:08.890 ,4,1,0.,24.0,0.,24.0
1981-08-25 07:13:32.890 ,4,0,0.,24.0,0.,24.0
1981-08-25 07:13:56.890 ,3,1,0.,24.0,0.,24.0
1981-08-25 07:14:20.890 ,3,0,0.,24.0,0.,24.0
1981-08-25 07:14:44.890 ,2,1,0.,24.0,0.,24.0
1981-08-25 07:15:08.890 ,2,0,0.,24.0,0.,24.0
1981-08-25 07:15:32.890 ,1,1,0.,24.0,0.,24.0
1981-08-25 07:15:56.890 ,1,0,0.,24.0,0.,24.0
1981-08-25 07:16:20.890 ,0,1,0.,24.0,0.,24.0
1981-08-25 07:16:44.890 ,0,0,0.,24.0,0.,24.0
1981-08-25 07:17:08.890 ,0,1,0.,24.0,0.,24.0
1981-08-25 07:17:32.890 ,0,0,0.,24.0,0.,24.0
1981-08-25 07:17:56.890 ,1,1,0.,24.0,0.,24.0
1981-08-25 07:18:20.890 ,1,0,0.,24.0,0.,24.0
1981-08-25 07:18:44.890 ,2,1,0.,24.0,0.,24.0
1981-08-25 07:19:08.890 ,2,0,0.,24.0,0.,24.0
1981-08-25 07:19:32.890 ,3,1,0.,24.0,0.,24.0
1981-08-25 07:19:56.890 ,3,0,0.,24.0,0.,24.0
1981-08-25 07:20:20.880 ,4,1,0.,24.0,0.,24.0
1981-08-25 07:20:44.880 ,4,0,0.,24.0,0.,24.0
1981-08-25 07:21:08.880 ,5,1,0.,24.0,0.,24.0
1981-08-25 07:21:32.880 ,5,0,0.,24.0,0.,24.0
1981-08-25 07:21:56.880 ,6,1,0.,24.0,0.,24.0
1981-08-25 07:22:20.880 ,6,0,0.,24.0,0.,24.0
1981-08-25 07:22:44.880 ,7,1,0.,24.0,0.,24.0
1981-08-25 07:23:08.880 ,7,0,0.,24.0,0.,24.0
1981-08-25 07:23:32.880 ,7,1,0.,24.0,0.,24.0
1981-08-25 07:23:56.880 ,7,0,0.,24.0,0.,24.0
1981-08-25 07:24:20.880 ,6,1,0.,24.0,0.,24.0
1981-08-25 07:24:44.880 ,6,0,0.,24.0,0.,24.0
1981-08-25 07:25:08.880 ,5,1,0.,24.0,0.,24.0
1981-08-25 07:25:32.880 ,5,0,0.,24.0,0.,24.0
1981-08-25 07:26:44.880 ,0,0,0.,24.0,0.,24.0
1981-08-25 07:27:08.880 ,0,0,0.,24.0,0.,24.0
1981-08-25 07:27:32.880 ,2,1,0.,24.0,0.,24.0
1981-08-25 07:27:56.880 ,2,0,0.,24.0,0.,24.0
1981-08-25 07:28:20.880 ,1,1,0.,24.0,0.,24.0
1981-08-25 07:28:44.880 ,1,0,0.,24.0,0.,24.0
1981-08-25 07:29:08.880 ,0,1,0.,24.0,0.,24.0
1981-08-25 07:29:32.880 ,0,0,0.,24.0,0.,24.0
1981-08-25 07:29:56.880 ,0,1,0.,24.0,0.,24.0
1981-08-25 07:30:20.880 ,0,0,0.,24.0,0.,24.0
1981-08-25 07:30:44.880 ,1,1,0.,24.0,0.,24.0
1981-08-25 07:31:08.880 ,1,0,0.,24.0,0.,24.0
1981-08-25 07:31:32.880 ,2,1,0.,24.0,0.,24.0
1981-08-25 07:31:56.880 ,2,0,0.,24.0,0.,24.0
1981-08-25 07:32:20.880 ,3,1,0.,24.0,0.,24.0
1981-08-25 07:32:44.880 ,3,0,0.,24.0,0.,24.0
1981-08-25 07:33:08.880 ,4,1,0.,24.0,0.,24.0
1981-08-25 07:33:32.880 ,4,0,0.,24.0,0.,24.0
1981-08-25 07:33:56.880 ,5,1,0.,24.0,0.,24.0
1981-08-25 07:34:20.880 ,5,0,0.,24.0,0.,24.0
1981-08-25 07:34:44.880 ,6,1,0.,24.0,0.,24.0
1981-08-25 07:35:08.880 ,6,0,0.,24.0,0.,24.0
1981-08-25 07:35:32.880 ,7,1,0.,24.0,0.,24.0
1981-08-25 07:35:56.880 ,7,0,0.,24.0,0.,24.0
1981-08-25 07:36:20.880 ,7,1,0.,24.0,0.,24.0
1981-08-25 07:36:44.880 ,7,0,0.,24.0,0.,24.0
1981-08-25 07:37:08.880 ,6,1,0.,24.0,0.,24.0
1981-08-25 07:37:32.880 ,6,0,0.,24.0,0.,24.0
1981-08-25 07:37:56.880 ,5,1,0.,24.0,0.,24.0
1981-08-25 07:38:20.880 ,5,0,0.,24.0,0.,24.0
1981-08-25 07:38:44.880 ,4,1,0.,24.0,0.,24.0
1981-08-25 07:39:08.880 ,4,0,0.,24.0,0.,24.0
1981-08-25 07:39:32.880 ,3,1,0.,24.0,0.,24.0
1981-08-25 07:39:56.880 ,3,0,0.,24.0,0.,24.0
1981-08-25 07:40:20.880 ,2,1,0.,24.0,0.,24.0
1981-08-25 07:40:44.880 ,2,0,0.,24.0,0.,24.0
1981-08-25 07:41:08.880 ,1,1,0.,24.0,0.,24.0
1981-08-25 07:41:32.880 ,1,0,0.,24.0,0.,24.0
1981-08-25 07:41:56.880 ,0,1,0.,24.0,0.,24.0
1981-08-25 07:42:20.880 ,0,0,0.,24.0,0.,24.0
1981-08-25 07:42:44.880 ,0,1,0.,24.0,0.,24.0
1981-08-25 07:43:08.880 ,0,0,0.,24.0,0.,24.0
1981-08-25 07:43:32.880 ,1,1,0.,24.0,0.,24.0
1981-08-25 07:43:56.880 ,1,0,0.,24.0,0.,24.0
1981-08-25 07:44:20.880 ,2,1,0.,24.0,0.,24.0
1981-08-25 07:44:44.880 ,2,0,0.,24.0,0.,24.0
1981-08-25 07:45:08.880 ,3,1,0.,24.0,0.,24.0
1981-08-25 07:45:32.880 ,3,0,0.,24.0,0.,24.0
1981-08-25 07:45:56.880 ,4,1,0.,24.0,0.,24.0
1981-08-25 07:46:20.880 ,4,0,0.,24.0,0.,24.0
1981-08-25 07:46:44.880 ,5,1,0.,24.0,0.,24.0
1981-08-25 07:47:08.880 ,5,0,0.,24.0,0.,24.0
1981-08-25 07:47:32.880 ,6,1,0.,24.0,0.,24.0
1981-08-25 07:47:56.880 ,6,0,0.,24.0,0.,24.0
1981-08-25 07:48:20.880 ,7,1,0.,24.0,0.,24.0
1981-08-25 07:48:44.880 ,7,0,0.,24.0,0.,24.0
1981-08-25 07:49:08.880 ,7,1,0.,24.0,0.,24.0
1981-08-25 07:49:32.880 ,7,0,0.,24.0,0.,24.0
1981-08-25 07:49:56.880 ,6,1,0.,24.0,0.,24.0
1981-08-25 07:50:20.880 ,6,0,0.,24.0,0.,24.0
1981-08-25 07:50:44.880 ,5,1,0.,24.0,0.,24.0
1981-08-25 07:51:08.880 ,5,0,0.,24.0,0.,24.0
1981-08-25 07:51:32.880 ,4,1,0.,24.0,0.,24.0
1981-08-25 07:51:56.880 ,4,0,0.,24.0,0.,24.0
1981-08-25 07:52:20.880 ,3,1,0.,24.0,0.,24.0
1981-08-25 07:52:44.880 ,3,0,0.,24.0,0.,24.0
1981-08-25 07:53:08.880 ,2,1,0.,24.0,0.,24.0
1981-08-25 07:53:32.880 ,2,0,0.,24.0,0.,24.0
1981-08-25 07:53:56.880 ,1,1,0.,24.0,0.,24.0
1981-08-25 07:54:20.880 ,1,0,0.,24.0,0.,24.0
1981-08-25 07:54:44.880 ,0,1,0.,24.0,0.,24.0
1981-08-25 07:55:08.880 ,0,0,0.,24.0,0.,24.0
1981-08-25 07:55:32.880 ,0,1,0.,24.0,0.,24.0
1981-08-25 07:55:56.880 ,0,0,0.,24.0,0.,24.0
1981-08-25 07:56:20.880 ,1,1,0.,24.0,0.,24.0
1981-08-25 07:56:44.880 ,1,0,0.,24.0,0.,24.0
1981-08-25 07:57:08.880 ,2,1,0.,24.0,0.,24.0
1981-08-25 07:57:32.880 ,2,0,0.,24.0,0.,24.0
1981-08-25 07:57:56.880 ,3,1,0.,24.0,0.,24.0
1981-08-25 07:58:20.880 ,3,0,0.,24.0,0.,24.0
1981-08-25 07:58:44.880 ,4,1,0.,24.0,0.,24.0
1981-08-25 07:59:08.880 ,4,0,0.,24.0,0.,24.0
1981-08-25 07:59:32.880 ,5,1,0.,24.0,0.,24.0
1981-08-25 07:59:56.880 ,5,0,0.,24.0,0.,24.0
1981-08-25 08:00:20.880 ,6,1,0.,24.0,0.,24.0
1981-08-25 08:00:44.880 ,6,0,0.,24.0,0.,24.0
1981-08-25 08:01:08.880 ,7,1,0.,24.0,0.,24.0
1981-08-25 08:01:32.880 ,7,0,0.,24.0,0.,24.0
1981-08-25 08:01:56.880 ,7,1,0.,24.0,0.,24.0
1981-08-25 08:02:20.880 ,7,0,0.,24.0,0.,24.0
1981-08-25 08:02:44.880 ,6,1,0.,24.0,0.,24.0
1981-08-25 08:03:08.880 ,6,0,0.,24.0,0.,24.0
1981-08-25 08:03:32.880 ,5,1,0.,24.0,0.,24.0
1981-08-25 08:03:56.880 ,5,0,0.,24.0,0.,24.0
1981-08-25 08:04:20.880 ,4,1,0.,24.0,0.,24.0
1981-08-25 08:04:44.880 ,4,0,0.,24.0,0.,24.0
1981-08-25 08:05:08.880 ,3,1,0.,24.0,0.,24.0
1981-08-25 08:05:32.880 ,3,0,0.,24.0,0.,24.0
1981-08-25 08:05:56.880 ,2,1,0.,24.0,0.,24.0
1981-08-25 08:06:20.880 ,2,0,0.,24.0,0.,24.0
1981-08-25 08:06:44.880 ,1,1,0.,24.0,0.,24.0
1981-08-25 08:07:08.880 ,1,0,0.,24.0,0.,24.0
1981-08-25 08:07:32.880 ,0,1,0.,24.0,0.,24.0
1981-08-25 08:07:56.880 ,0,0,0.,24.0,0.,24.0
1981-08-25 08:08:20.880 ,0,1,0.,24.0,0.,24.0
1981-08-25 08:08:44.880 ,0,0,0.,24.0,0.,24.0
1981-08-25 08:09:08.880 ,1,1,0.,24.0,0.,24.0
1981-08-25 08:09:32.880 ,1,0,0.,24.0,0.,24.0
1981-08-25 08:09:56.880 ,2,1,0.,24.0,0.,24.0
1981-08-25 08:10:20.880 ,2,0,0.,24.0,0.,24.0
1981-08-25 08:10:44.880 ,3,1,0.,24.0,0.,24.0
1981-08-25 08:11:08.880 ,3,0,0.,24.0,0.,24.0
1981-08-25 08:11:32.880 ,4,1,0.,24.0,0.,24.0
1981-08-25 08:11:56.880 ,4,0,0.,24.0,0.,24.0
1981-08-25 08:12:20.880 ,5,1,0.,24.0,0.,24.0
1981-08-25 08:12:44.880 ,5,0,0.,24.0,0.,24.0
1981-08-25 08:13:08.880 ,0,0,,0,,0
1981-08-25 08:13:32.880 ,0,0,,0,,0
1981-08-25 08:13:32.880 ,0,0,0.,24.0,0.,24.0
1981-08-25 08:13:56.880 ,7,1,0.,24.0,0.,24.0
1981-08-25 08:14:20.880 ,7,0,0.,24.0,0.,24.0
1981-08-25 08:14:44.880 ,7,1,0.,24.0,0.,24.0
1981-08-25 08:15:08.880 ,7,0,0.,24.0,0.,24.0
1981-08-25 08:15:32.880 ,6,1,0.,24.0,0.,24.0
1981-08-25 08:15:56.880 ,6,0,0.,24.0,0.,24.0
1981-08-25 08:16:20.880 ,5,1,0.,24.0,0.,24.0
1981-08-25 08:16:44.880 ,5,0,0.,24.0,0.,24.0
1981-08-25 08:17:08.880 ,4,1,0.,24.0,0.,24.0
1981-08-25 08:17:32.880 ,4,0,0.,24.0,0.,24.0
1981-08-25 08:17:56.880 ,3,1,0.,24.0,0.,24.0
1981-08-25 08:18:20.880 ,3,0,0.,24.0,0.,24.0
1981-08-25 08:18:44.880 ,2,1,0.,24.0,0.,24.0
1981-08-25 08:19:08.880 ,2,0,0.,24.0,0.,24.0
1981-08-25 08:19:32.880 ,1,1,0.,24.0,0.,24.0
1981-08-25 08:19:56.880 ,1,0,0.,24.0,0.,24.0
1981-08-25 08:20:20.880 ,0,1,0.,24.0,0.,24.0
1981-08-25 08:20:44.880 ,0,0,0.,24.0,0.,24.0
1981-08-25 08:21:08.880 ,0,1,0.,24.0,0.,24.0
1981-08-25 08:21:32.880 ,0,0,0.,24.0,0.,24.0
1981-08-25 08:21:56.880 ,1,1,0.,24.0,0.,24.0
1981-08-25 08:22:20.880 ,1,0,0.,24.0,0.,24.0
1981-08-25 08:22:44.880 ,2,1,0.,24.0,0.,24.0
1981-08-25 08:23:08.880 ,2,0,0.,24.0,0.,24.0
1981-08-25 08:23:32.880 ,3,1,0.,24.0,0.,24.0
1981-08-25 08:23:56.880 ,3,0,0.,24.0,0.,24.0
1981-08-25 08:24:20.880 ,4,1,0.,24.0,0.,24.0
1981-08-25 08:24:44.880 ,4,0,0.,24.0,0.,24.0
1981-08-25 08:25:08.880 ,5,1,0.,24.0,0.,24.0
1981-08-25 08:25:32.880 ,5,0,0.,24.0,0.,24.0
1981-08-25 08:25:56.880 ,6,1,0.,24.0,0.,24.0
1981-08-25 08:26:20.880 ,6,0,0.,24.0,0.,24.0
1981-08-25 08:26:44.880 ,7,1,0.,24.0,0.,24.0
1981-08-25 08:27:08.880 ,7,0,0.,24.0,0.,24.0
1981-08-25 08:27:32.880 ,7,1,0.,24.0,0.,24.0
1981-08-25 08:27:56.880 ,7,0,0.,24.0,0.,24.0
1981-08-25 08:28:20.880 ,6,1,0.,24.0,0.,24.0
1981-08-25 08:28:44.880 ,6,0,0.,24.0,0.,24.0
1981-08-25 08:29:08.880 ,5,1,0.,24.0,0.,24.0
1981-08-25 08:29:32.880 ,5,0,0.,24.0,0.,24.0
1981-08-25 08:30:44.880 ,0,0,0.,24.0,0.,24.0
1981-08-25 08:31:08.880 ,0,0,0.,24.0,0.,24.0
1981-08-25 08:31:32.880 ,2,1,0.,24.0,0.,24.0
1981-08-25 08:31:56.880 ,2,0,0.,24.0,0.,24.0
1981-08-25 08:32:20.880 ,1,1,0.,24.0,0.,24.0
1981-08-25 08:32:44.880 ,1,0,0.,24.0,0.,24.0
1981-08-25 08:33:08.880 ,0,1,0.,24.0,0.,24.0
1981-08-25 08:33:32.880 ,0,0,0.,24.0,0.,24.0
1981-08-25 08:33:56.880 ,0,1,0.,24.0,0.,24.0
1981-08-25 08:34:20.880 ,0,0,0.,24.0,0.,24.0
1981-08-25 08:34:44.880 ,1,1,0.,24.0,0.,24.0
1981-08-25 08:35:08.880 ,1,0,0.,24.0,0.,24.0
1981-08-25 08:35:32.880 ,2,1,0.,24.0,0.,24.0
1981-08-25 08:35:56.880 ,2,0,0.,24.0,0.,24.0
1981-08-25 08:36:20.880 ,3,1,0.,24.0,0.,24.0
1981-08-25 08:36:44.880 ,3,0,0.,24.0,0.,24.0
1981-08-25 08:37:08.880 ,4,1,0.,24.0,0.,24.0
1981-08-25 08:37:32.880 ,4,0,0.,24.0,0.,24.0
1981-08-25 08:37:56.880 ,5,1,0.,24.0,0.,24.0
1981-08-25 08:38:20.880 ,5,0,0.,24.0,0.,24.0
1981-08-25 08:38:44.880 ,6,1,0.,24.0,0.,24.0
1981-08-25 08:39:08.880 ,6,0,0.,24.0,0.,24.0
1981-08-25 08:39:32.880 ,7,1,0.,24.0,0.,24.0
1981-08-25 08:39:56.880 ,7,0,0.,24.0,0.,24.0
1981-08-25 08:40:20.880 ,7,1,0.,24.0,0.,24.0
1981-08-25 08:40:44.880 ,7,0,0.,24.0,0.,24.0
1981-08-25 08:41:08.880 ,6,1,0.,24.0,0.,24.0
1981-08-25 08:41:32.880 ,6,0,0.,24.0,0.,24.0
1981-08-25 08:41:56.880 ,5,1,0.,24.0,0.,24.0
1981-08-25 08:42:20.880 ,5,0,0.,24.0,0.,24.0
1981-08-25 08:42:44.880 ,4,1,0.,24.0,0.,24.0
1981-08-25 08:43:08.880 ,4,0,0.,24.0,0.,24.0
1981-08-25 08:43:32.880 ,3,1,0.,24.0,0.,24.0
1981-08-25 08:43:56.880 ,3,0,0.,24.0,0.,24.0
1981-08-25 08:44:20.880 ,2,1,0.,24.0,0.,24.0
1981-08-25 08:44:44.880 ,2,0,0.,24.0,0.,24.0
1981-08-25 08:45:08.880 ,1,1,0.,24.0,0.,24.0
1981-08-25 08:45:32.880 ,1,0,0.,24.0,0.,24.0
1981-08-25 08:45:56.880 ,0,1,0.,24.0,0.,24.0
1981-08-25 08:46:20.880 ,0,0,0.,24.0,0.,24.0
1981-08-25 08:46:44.880 ,0,1,0.,24.0,0.,24.0
1981-08-25 08:47:08.880 ,0,0,0.,24.0,0.,24.0
1981-08-25 08:47:32.880 ,1,1,0.,24.0,0.,24.0
1981-08-25 08:47:56.880 ,1,0,0.,24.0,0.,24.0
1981-08-25 08:48:20.880 ,2,1,0.,24.0,0.,24.0
1981-08-25 08:48:44.880 ,2,0,0.,24.0,0.,24.0
1981-08-25 08:49:08.880 ,3,1,0.,24.0,0.,24.0
1981-08-25 08:49:32.880 ,3,0,0.,24.0,0.,24.0
1981-08-25 08:49:56.880 ,4,1,0.,24.0,0.,24.0
1981-08-25 08:50:20.880 ,4,0,0.,24.0,0.,24.0
1981-08-25 08:50:44.880 ,5,1,0.,24.0,0.,24.0
1981-08-25 08:51:08.880 ,5,0,0.,24.0,0.,24.0
1981-08-25 08:51:32.880 ,6,1,0.,24.0,0.,24.0
1981-08-25 08:51:56.880 ,6,0,0.,24.0,0.,24.0
1981-08-25 08:52:20.880 ,7,1,0.,24.0,0.,24.0
1981-08-25 08:52:44.880 ,7,0,0.,24.0,0.,24.0
1981-08-25 08:53:08.880 ,7,1,0.,24.0,0.,24.0
1981-08-25 08:53:32.880 ,7,0,0.,24.0,0.,24.0
1981-08-25 08:53:56.880 ,6,1,0.,24.0,0.,24.0
1981-08-25 08:54:20.880 ,6,0,0.,24.0,0.,24.0
1981-08-25 08:54:44.880 ,5,1,0.,24.0,0.,24.0
1981-08-25 08:55:08.880 ,0,0,0.,24.0,0.,24.0
1981-08-25 08:56:01.680 ,0,0,0.,24.0,0.,24.0
1981-08-25 08:56:20.880 ,3,1,0.,24.0,0.,24.0
1981-08-25 08:56:44.880 ,3,0,0.,24.0,0.,24.0
1981-08-25 08:57:08.880 ,2,1,0.,24.0,0.,24.0
1981-08-25 08:57:32.880 ,2,0,0.,24.0,0.,24.0
1981-08-25 08:57:56.880 ,1,1,0.,24.0,0.,24.0
1981-08-25 08:58:20.880 ,1,0,0.,24.0,0.,24.0
1981-08-25 08:58:44.880 ,0,1,0.,24.0,0.,24.0
1981-08-25 08:59:08.880 ,0,0,0.,24.0,0.,24.0
1981-08-25 08:59:32.880 ,0,1,0.,24.0,0.,24.0
1981-08-25 08:59:56.880 ,0,0,0.,24.0,0.,24.0
1981-08-25 09:00:20.880 ,1,1,0.,24.0,0.,24.0
